Waterville, ME

5:29 PM EDT on June 24, 2018 (GMT -0400)
Waterville Lafleur

Weather History for KWVL - March, 2015

Change the Weather History Date:

Friday, March 6, 2015

  Actual Average Record
Temperature  
Mean Temperature 10 °F -  
Max Temperature 24 °F 40 °F 56 °F (1974)
Min Temperature -5 °F 18 °F -5 °F (2007)
Degree Days  
Heating Degree Days 56    
Moisture  
Dew Point -9 °F    
Average Humidity 42    
Maximum Humidity 62    
Minimum Humidity 26    
Precipitation  
Precipitation 0.00 in - - ()
Sea Level Pressure  
Sea Level Pressure 30.31 in    
Wind  
Wind Speed 3 mph (SW)    
Max Wind Speed 10 mph    
Max Gust Speed 16 mph    
Averages and records for this station are not official NWS values.
T = Trace of Precipitation, MM = Missing Value Source: NWS Daily Summary

Daily Weather History Graph

Daily Weather History Graph

Search for Another Location

Airport or City:

Astronomy

Mar. 06, 2015 Rise Set
Actual Time 6:07 AM EST 5:32 PM EST
Civil Twilight 5:38 AM EST 6:01 PM EST
Nautical Twilight 5:05 AM EST 6:35 PM EST
Astronomical Twilight 4:31 AM EST 7:09 PM EST
Moon 6:40 PM EST (3/6) 6:20 AM EST (3/6)
Length of Visible Light 12h 23m
Length of Day
11h 25m
Full, 99% of the Moon is Illuminated
Mar 6
Full
Mar 13
Last Quarter
Mar 20
New
Mar 27
First Quarter
Apr 4
Full

Hourly Weather History & Observations

Time (EST) Temp. Windchill Dew Point Humidity Pressure Visibility Wind Dir Wind Speed Gust Speed Precip Events Conditions
12:15 AM 1.4 °F - -14.8 °F 47% 30.28 in - Calm Calm - N/A   Clear
12:35 AM 1.4 °F -8.3 °F -14.8 °F 47% 30.28 in - NNW 4.6 mph - N/A   Clear
12:55 AM 3.2 °F -6.2 °F -13.0 °F 47% 30.29 in - NW 4.6 mph - N/A   Clear
1:15 AM 3.2 °F -4.2 °F -14.8 °F 43% 30.29 in - WNW 3.5 mph - N/A   Clear
1:35 AM -0.4 °F - -18.4 °F 43% 30.30 in - Calm Calm - N/A   Clear
1:55 AM -0.4 °F - -16.6 °F 46% 30.30 in - Calm Calm - N/A   Clear
2:15 AM -0.4 °F - -16.6 °F 46% 30.31 in - Calm Calm - N/A   Clear
2:35 AM -0.4 °F - -14.8 °F 51% 30.32 in - Calm Calm - N/A   Clear
2:55 AM -0.4 °F -13.4 °F -14.8 °F 51% 30.32 in - NW 6.9 mph - N/A   Clear
3:15 AM 1.4 °F -8.3 °F -14.8 °F 47% 30.31 in - NNW 4.6 mph - N/A   Clear
3:35 AM -0.4 °F -8.3 °F -16.6 °F 46% 30.32 in - NW 3.5 mph - N/A   Clear
3:55 AM -2.2 °F - -16.6 °F 50% 30.33 in - Calm Calm - N/A   Clear
4:15 AM -0.4 °F - -16.6 °F 46% 30.34 in - Calm Calm - N/A   Clear
4:35 AM 1.4 °F - -14.8 °F 47% 30.34 in - Calm Calm - N/A   Clear
4:55 AM -4.0 °F - -20.2 °F 46% 30.35 in - Calm Calm - N/A   Clear
5:15 AM -2.2 °F - -18.4 °F 46% 30.35 in - Calm Calm - N/A   Clear
5:35 AM -4.0 °F - -18.4 °F 50% 30.35 in - Calm Calm - N/A   Clear
5:55 AM -5.8 °F - -18.4 °F 55% 30.36 in - Calm Calm - N/A   Clear
6:15 AM -5.8 °F - -18.4 °F 55% 30.36 in - Calm Calm - N/A   Clear
6:35 AM -5.8 °F - -20.2 °F 50% 30.37 in - Calm Calm - N/A   Clear
6:55 AM -4.0 °F - -16.6 °F 55% 30.37 in - Calm Calm - N/A   Clear
7:15 AM -5.8 °F - -18.4 °F 55% 30.38 in - Calm Calm - N/A   Clear
7:35 AM -4.0 °F - -16.6 °F 55% 30.39 in - Calm Calm - N/A   Clear
7:55 AM -0.4 °F -8.3 °F -14.8 °F 51% 30.40 in - SW 3.5 mph - N/A   Clear
8:15 AM 3.2 °F - -11.2 °F 51% 30.40 in - Calm Calm - N/A   Clear
8:35 AM 6.8 °F - -7.6 °F 52% 30.41 in - Calm Calm - N/A   Clear
8:55 AM 8.6 °F - -9.4 °F 44% 30.41 in - Calm Calm - N/A   Clear
9:15 AM 10.4 °F 4.0 °F -9.4 °F 41% 30.41 in - SW 3.5 mph - N/A   Clear
9:35 AM 10.4 °F 4.0 °F -9.4 °F 41% 30.41 in - SW 3.5 mph - N/A   Clear
9:55 AM 12.2 °F 6.1 °F -7.6 °F 41% 30.40 in - WSW 3.5 mph - N/A   Clear
10:15 AM 14.0 °F 6.5 °F -9.4 °F 35% 30.40 in - SW 4.6 mph - N/A   Clear
10:35 AM 14.0 °F 6.5 °F -9.4 °F 35% 30.40 in - SW 4.6 mph - N/A   Clear
10:55 AM 15.8 °F 8.6 °F -7.6 °F 35% 30.40 in - SW 4.6 mph - N/A   Clear
11:15 AM 15.8 °F 5.1 °F -7.6 °F 35% 30.39 in - SSW 8.1 mph - N/A   Clear
11:35 AM 17.6 °F 10.7 °F -5.8 °F 35% 30.38 in - WSW 4.6 mph - N/A   Clear
11:55 AM 17.6 °F 8.2 °F -7.6 °F 32% 30.38 in - SW 6.9 mph - N/A   Clear
12:15 PM 19.4 °F 10.4 °F -7.6 °F 30% 30.37 in - SSW 6.9 mph - N/A   Clear
12:35 PM 19.4 °F 7.9 °F -7.6 °F 30% 30.36 in - SW 10.4 mph - N/A   Clear
12:55 PM 19.4 °F 10.4 °F -7.6 °F 30% 30.35 in - SSW 6.9 mph - N/A   Clear
1:15 PM 21.2 °F 12.6 °F -7.6 °F 28% 30.34 in - SSW 6.9 mph - N/A   Clear
1:35 PM 21.2 °F 10.9 °F -7.6 °F 28% 30.32 in - South 9.2 mph - N/A   Clear
1:55 PM 21.2 °F 13.6 °F -7.6 °F 28% 30.32 in - SW 5.8 mph - N/A   Clear
2:15 PM 21.2 °F 10.1 °F -7.6 °F 28% 30.31 in - SSW 10.4 mph 16.1 mph N/A   Clear
2:35 PM 23.0 °F 13.9 °F -7.6 °F 26% 30.31 in - SW 8.1 mph - N/A   Clear
2:55 PM 23.0 °F 13.9 °F -5.8 °F 28% 30.30 in - SW 8.1 mph - N/A   Clear
3:15 PM 23.0 °F 13.9 °F -5.8 °F 28% 30.29 in - SSW 8.1 mph - N/A   Clear
3:35 PM 23.0 °F 12.4 °F -5.8 °F 28% 30.29 in - SSW 10.4 mph - N/A   Clear
3:55 PM 24.8 °F 14.6 °F -5.8 °F 26% 30.28 in - SSW 10.4 mph - N/A   Clear
4:15 PM 23.0 °F 13.9 °F -5.8 °F 28% 30.27 in - SSW 8.1 mph - N/A   Clear
4:35 PM 23.0 °F 15.8 °F -7.6 °F 26% 30.27 in - SSW 5.8 mph - N/A   Clear
4:55 PM 23.0 °F 12.4 °F -7.6 °F 26% 30.27 in - SSW 10.4 mph - N/A   Clear
5:15 PM 21.2 °F 10.9 °F -7.6 °F 28% 30.26 in - South 9.2 mph - N/A   Clear
5:35 PM 19.4 °F 9.5 °F -7.6 °F 30% 30.26 in - South 8.1 mph - N/A   Clear
5:55 PM 19.4 °F 10.4 °F -5.8 °F 33% 30.26 in - South 6.9 mph - N/A   Clear
6:15 PM 17.6 °F 9.3 °F -5.8 °F 35% 30.25 in - South 5.8 mph - N/A   Clear
6:35 PM 17.6 °F 8.2 °F -5.8 °F 35% 30.25 in - South 6.9 mph - N/A   Clear
6:55 PM 17.6 °F 12.3 °F -4.0 °F 38% 30.25 in - South 3.5 mph - N/A   Clear
7:15 PM 15.8 °F 8.6 °F -2.2 °F 45% 30.25 in - South 4.6 mph - N/A   Clear
7:35 PM 15.8 °F - -2.2 °F 45% 30.24 in - Calm Calm - N/A   Clear
7:55 PM 15.8 °F 10.2 °F -2.2 °F 45% 30.23 in - South 3.5 mph - N/A   Clear
8:15 PM 15.8 °F 10.2 °F -2.2 °F 45% 30.22 in - South 3.5 mph - N/A   Clear
8:35 PM 15.8 °F 10.2 °F -2.2 °F 45% 30.22 in - South 3.5 mph - N/A   Clear
8:55 PM 14.0 °F - -2.2 °F 49% 30.22 in - Calm Calm - N/A   Clear
9:15 PM 12.2 °F 6.1 °F -0.4 °F 57% 30.21 in - South 3.5 mph - N/A   Clear
9:35 PM 12.2 °F 6.1 °F -0.4 °F 57% 30.21 in - SSW 3.5 mph - N/A   Clear
9:55 PM 14.0 °F - -0.4 °F 53% 30.20 in - Calm Calm - N/A   Clear
10:15 PM 14.0 °F - -0.4 °F 53% 30.19 in - Calm Calm - N/A   Clear
10:35 PM 12.2 °F - -0.4 °F 57% 30.18 in - Calm Calm - N/A   Clear
10:55 PM 12.2 °F - -0.4 °F 57% 30.17 in - Calm Calm - N/A   Clear
11:15 PM 12.2 °F 6.1 °F -0.4 °F 57% 30.17 in - South 3.5 mph - N/A   Clear
11:35 PM 10.4 °F - -0.4 °F 62% 30.16 in - Calm Calm - N/A   Clear
11:55 PM 10.4 °F 4.0 °F -0.4 °F 62% 30.15 in - South 3.5 mph - N/A   Clear